Weather reports worldwide

Advertisment
Lecce, Italy (16332): temperature & dewpoint: 05.12.2019 09:00:00 - 11.12.2019 09:00:00 (CET)Lecce, Italy (16332): wind speed: 05.12.2019 09:00:00 - 11.12.2019 09:00:00 (CET)Lecce, Italy (16332): wind direction: 05.12.2019 09:00:00 - 11.12.2019 09:00:00 (CET)Lecce, Italy (16332): reduced air pressure: 05.12.2019 09:00:00 - 11.12.2019 09:00:00 (CET)Lecce, Italy (16332): visibility: 05.12.2019 09:00:00 - 11.12.2019 09:00:00 (CET)
Date & Time tt [°C] td [°C] ff [km/h] ff [kn] dd ppp [hPa] vv [km]
11.12.2019 09:00:00 12,0 10,0 16 9 NNE - 10
11.12.2019 08:00:00 12,0 11,0 24 13 N - 10
11.12.2019 07:00:00 12,0 11,1 22 12 N 1006,4 10
11.12.2019 06:00:00 12,0 11,0 28 15 N - 10
11.12.2019 05:00:00 12,0 11,0 22 12 N - 10
11.12.2019 04:00:00 12,0 11,5 16 9 N 1006,5 10
11.12.2019 03:00:00 12,0 12,0 13 7 N - 10
11.12.2019 02:00:00 12,0 12,0 9 5 NNE - 10
11.12.2019 01:00:00 12,4 12,1 13 7 NNE 1007,0 10
11.12.2019 00:00:00 14,0 13,0 11 6 NNE - 10
10.12.2019 23:00:00 14,0 11,0 15 8 N - 10
10.12.2019 22:00:00 13,6 11,0 15 8 N 1007,0 10
10.12.2019 21:00:00 12,0 10,0 15 8 N - 10
10.12.2019 20:00:00 11,0 11,0 11 6 N - 10
10.12.2019 19:00:00 11,8 11,7 5 3 NNW 1007,4 10
10.12.2019 18:00:00 12,0 12,0 8 4 NNW - 10
10.12.2019 17:00:00 13,0 12,0 9 5 NNW - 10
10.12.2019 16:00:00 14,0 12,2 13 7 NNW 1007,4 10
10.12.2019 15:00:00 15,0 12,0 15 8 NNW - 10
10.12.2019 14:00:00 16,0 12,0 18 10 NNW - 10
10.12.2019 13:00:00 16,6 9,8 2 1 SSW 1007,3 10
10.12.2019 12:00:00 16,0 10,0 4 2 N - 10
10.12.2019 11:00:00 16,0 10,0 5 3 ENE - 10
10.12.2019 10:00:00 15,0 10,2 8 4 NNW 1008,4 10
10.12.2019 09:00:00 12,0 12,0 4 2 SE - 10
10.12.2019 08:00:00 9,0 9,0 4 2 E - 10
10.12.2019 07:00:00 9,6 9,3 4 2 SSE 1007,2 10
10.12.2019 06:00:00 11,0 11,0 5 3 SE - 10
10.12.2019 05:00:00 11,0 11,0 9 5 SW - 10
10.12.2019 04:00:00 11,2 11,0 9 5 S 1007,1 10
10.12.2019 03:00:00 12,0 12,0 5 3 SE - 10
10.12.2019 02:00:00 12,0 12,0 8 4 SSW - 10
10.12.2019 01:00:00 12,4 11,8 5 3 SSW 1007,8 10
10.12.2019 00:00:00 13,0 12,0 8 4 S - 10
09.12.2019 23:00:00 13,0 12,0 4 2 S - 10
09.12.2019 22:00:00 13,0 12,5 9 5 S 1009,3 10
09.12.2019 21:00:00 13,0 13,0 8 4 SW - 10
09.12.2019 20:00:00 14,0 13,0 9 5 S - 10
09.12.2019 19:00:00 14,0 13,7 9 5 SSE 1010,2 10
09.12.2019 18:00:00 14,0 14,0 8 4 SSW - 10
09.12.2019 17:00:00 15,0 14,0 8 4 SSW - 10
09.12.2019 16:00:00 15,0 13,7 9 5 SSW 1010,7 10
09.12.2019 15:00:00 16,0 14,0 13 7 SSW - 10
09.12.2019 14:00:00 17,0 13,0 16 9 SSW - 10
09.12.2019 13:00:00 16,0 14,0 13 7 S 1012,3 10
09.12.2019 12:00:00 17,0 14,0 15 8 S - 10
09.12.2019 11:00:00 16,0 14,0 13 7 SSE - 10
09.12.2019 10:00:00 15,2 14,7 9 5 SSE 1014,8 10
09.12.2019 09:00:00 11,0 11,0 8 4 SE - 6
09.12.2019 08:00:00 9,0 9,0 8 4 SSE - 3,2
09.12.2019 07:00:00 7,6 7,5 8 4 SE 1015,6 0,9
09.12.2019 06:00:00 8,0 8,0 5 3 ESE - 0,7
09.12.2019 05:00:00 8,0 8,0 5 3 ESE - 1,8
09.12.2019 04:00:00 8,2 8,1 8 4 ESE 1017,1 7
09.12.2019 03:00:00 8,0 8,0 5 3 SE - 1,8
09.12.2019 02:00:00 8,0 8,0 5 3 E - 1,8
09.12.2019 01:00:00 7,8 7,5 4 2 ESE 1018,7 1,8
09.12.2019 00:00:00 8,0 7,0 4 2 SE - 0,7
08.12.2019 23:00:00 9,0 8,0 2 1 - - 0,7
08.12.2019 22:00:00 8,8 8,5 4 2 N 1019,6 7
08.12.2019 21:00:00 9,0 9,0 5 3 WSW - 10
08.12.2019 20:00:00 10,0 10,0 8 4 ESE - 10
08.12.2019 19:00:00 10,8 10,2 4 2 E 1020,2 10
08.12.2019 18:00:00 12,0 11,0 2 1 - - 10
08.12.2019 17:00:00 14,0 12,0 0 0 N - 10
08.12.2019 16:00:00 15,8 13,5 5 3 NE 1020,0 10
08.12.2019 15:00:00 18,0 13,0 11 6 ENE - 10
08.12.2019 14:00:00 18,0 11,0 5 3 NNE - 10
08.12.2019 13:00:00 17,6 11,6 5 3 NNE 1020,5 10
08.12.2019 12:00:00 17,0 11,0 4 2 - - 10
08.12.2019 11:00:00 16,0 13,0 4 2 - - 10
08.12.2019 10:00:00 13,8 13,2 2 1 - 1021,6 5
08.12.2019 09:00:00 10,0 10,0 4 2 NNW - 2,5
08.12.2019 08:00:00 7,0 7,0 5 3 - - 0,2
08.12.2019 07:00:00 7,4 7,0 4 2 N 1020,8 0,1
08.12.2019 06:00:00 8,0 8,0 4 2 - - 0,5
08.12.2019 05:00:00 8,0 8,0 2 1 - - 3,0
08.12.2019 04:00:00 10,0 9,4 4 2 N 1020,5 10
08.12.2019 03:00:00 10,0 9,0 2 1 - - 10
08.12.2019 02:00:00 10,0 9,0 2 1 - - 10
08.12.2019 01:00:00 10,0 9,4 4 2 N 1020,6 10
08.12.2019 00:00:00 11,0 11,0 2 1 - - 10
07.12.2019 23:00:00 11,0 11,0 4 2 - - 10
07.12.2019 22:00:00 11,0 10,4 4 2 N 1020,4 10
07.12.2019 21:00:00 11,0 10,0 2 1 - - 10
07.12.2019 20:00:00 11,0 10,0 2 1 - - 10
07.12.2019 19:00:00 10,6 10,0 4 2 SE 1020,2 10
07.12.2019 18:00:00 12,0 11,0 0 0 N - 10
07.12.2019 17:00:00 14,0 13,0 4 2 NNE - 10
07.12.2019 16:00:00 15,6 13,4 4 2 N 1019,6 10
07.12.2019 15:00:00 16,0 13,0 4 2 N - 10
07.12.2019 14:00:00 16,0 12,0 5 3 WNW - 10
07.12.2019 13:00:00 17,2 11,9 11 6 NW 1019,6 10
07.12.2019 12:00:00 18,0 12,0 11 6 NW - 10
07.12.2019 11:00:00 16,0 13,0 8 4 WNW - 10
07.12.2019 10:00:00 14,8 14,0 8 4 WSW 1020,8 7
07.12.2019 09:00:00 13,0 13,0 - - - - 3,2
07.12.2019 08:00:00 12,0 11,0 - - - - 0,9
07.12.2019 07:00:00 11,4 10,6 5 3 SW 1019,9 1,2
07.12.2019 06:00:00 12,0 11,0 - - - - 3,0
07.12.2019 05:00:00 12,0 11,0 - - - - 5
07.12.2019 04:00:00 12,4 11,6 5 3 SW 1019,9 7
07.12.2019 03:00:00 13,0 12,0 - - - - 10
07.12.2019 02:00:00 14,0 13,0 - - - - 10
07.12.2019 01:00:00 14,0 13,2 8 4 WNW 1020,2 10
07.12.2019 00:00:00 14,0 14,0 - - - - 10
06.12.2019 23:00:00 15,0 14,0 - - - - 10
06.12.2019 22:00:00 14,8 14,0 5 3 NE 1020,3 10
06.12.2019 21:00:00 15,0 15,0 - - - - 10
06.12.2019 20:00:00 15,0 14,0 - - - - 7
06.12.2019 19:00:00 15,2 14,4 11 6 N 1020,9 3,0
06.12.2019 18:00:00 16,0 15,0 15 8 E - 3,0
06.12.2019 17:00:00 16,0 15,0 13 7 E - 4,0
06.12.2019 16:00:00 16,0 15,2 8 4 ENE 1022,1 5
06.12.2019 15:00:00 16,0 15,0 8 4 E - 7
06.12.2019 14:00:00 16,0 15,0 11 6 SE - 7
06.12.2019 13:00:00 17,2 15,7 9 5 SSE 1023,5 8
06.12.2019 12:00:00 17,0 16,0 9 5 SSE - 8
06.12.2019 11:00:00 17,0 16,0 9 5 S - 8
06.12.2019 10:00:00 16,0 15,2 8 4 SE 1025,0 6
06.12.2019 09:00:00 14,0 13,0 5 3 ESE - 6
06.12.2019 08:00:00 13,0 12,0 0 0 N - 3,2
06.12.2019 07:00:00 13,0 12,2 5 3 E 1024,4 1,2
06.12.2019 06:00:00 13,0 12,0 0 0 N - 7
06.12.2019 05:00:00 13,0 12,0 0 0 N - 10
06.12.2019 04:00:00 13,0 12,2 0 0 N 1024,8 10
06.12.2019 03:00:00 13,0 12,0 0 0 N - 10
06.12.2019 02:00:00 13,0 12,0 11 6 E - 8
06.12.2019 01:00:00 13,0 12,4 11 6 E 1025,0 8
06.12.2019 00:00:00 13,0 13,0 9 5 ENE - 7
05.12.2019 23:00:00 13,0 13,0 9 5 ENE - 7
05.12.2019 22:00:00 12,8 12,3 11 6 E 1025,2 7
05.12.2019 21:00:00 13,0 12,0 11 6 ESE - 7
05.12.2019 20:00:00 12,0 12,0 11 6 E - 7
05.12.2019 19:00:00 12,6 12,1 11 6 E 1024,6 6
05.12.2019 18:00:00 13,0 13,0 8 4 NE - 7
05.12.2019 17:00:00 13,0 12,0 5 3 - - 5
05.12.2019 16:00:00 14,0 13,4 11 6 E 1023,6 8
05.12.2019 15:00:00 13,0 13,0 16 9 E - 7
05.12.2019 14:00:00 15,0 13,0 9 5 ENE - 7
05.12.2019 13:00:00 15,0 12,5 5 3 NE 1023,6 10
05.12.2019 12:00:00 15,0 12,0 9 5 E - 10
05.12.2019 11:00:00 14,0 12,0 5 3 ESE - 10
05.12.2019 10:00:00 13,6 11,7 11 6 E 1023,7 10
05.12.2019 09:00:00 10,0 10,0 0 0 N - 8

tt = temperature
td = dewpoint
ff = wind speed
dd = wind direction
ppp = reduced air pressure
vv = visibility

Next stations